Retour au catalogue

BLOCK DM-SL R/B

ActifGTO
NORAD 39774·ROCKET BODY· XX

Lancé May 26, 2014 depuis Sea Launch Platform

Loading…

TLE

VieillissantSource: Space-Track

Époque: Sep 14, 2026, 07:32 UTC

1 39774U 14030B   26257.31450480  .00000217  00000-0  73233-3 0  9996
2 39774   0.2106  19.4575 7203433 211.0609  40.2535  2.30242049103002

Suivez BLOCK DM-SL R/B en temps réel avec AllMySat

Download on the App Store